Track STARLINK-2469 now! 10-day predictions STARLINK-2469 is classified as:
1 48128U 21027AN 22186.86060993 -.00000634 00000-0 -23657-4 0 9997 2 48128 53.0567 9.9048 0001537 90.3715 269.7450 15.06393439 70993